Location: Newark
(41.8922°N, 9.0050°E)
Time: 00:29:48
(UTC+00:00)

Envisat - Pass Details

Date: 25 January 2020
Orbit: 764 x 766 km, 98.1° (Epoch: 24 February)

Event Time Altitude Azimuth Distance (km) Brightness Sun altitude
Rises 17:26:23 0° 174° (S) 3,218 6.4 -10.8°
Reaches altitude 10° 17:28:41 10° 177° (S) 2,296 5.6 -11.2°
Maximum altitude 17:33:43 65° 259° (WSW) 844 3.5 -12.1°
Drops below altitude 10° 17:38:47 10° 341° (NNW) 2,312 5.6 -13.0°
Sets 17:41:07 0° 344° (NNW) 3,242 6.3 -13.4°
